Location: Canazei
(46.4667°N, 11.7667°E)
Time: 04:11:08
(UTC+00:00)

ERS-1 - Pass Details

Date: 21 April 2021
Orbit: 741 x 790 km, 98.6° (Epoch: 10 May)

Event Time Altitude Azimuth Distance (km) Brightness Sun altitude
Rises 02:30:53 0° 14° (NNE) 3,193 8.6 -16.6°
Reaches altitude 10° 02:33:11 10° 14° (NNE) 2,267 7.7 -16.3°
Maximum altitude 02:38:10 88° 290° (WNW) 754 4.4 -15.6°
Enters shadow 02:42:08 17° 197° (SSW) 1,860 6.0 -15.1°
